FW3322 Weather Reports


time (UTC)temp
C
wind
direction
speed
KPH
gust
KPH
rain 1hr
cm
rain 24hr
cm
rain mn
cm
humidity
%
barometer
mb
20260906181534 37 5 9.7 14.5 0.00 0.00 0.00 46 1012.4
20260906180023 38 142 3.2 11.3 0.00 0.00 0.00 46 1012.8
20260906174522 38 57 4.8 12.9 0.00 0.00 0.00 45 1013.1
20260906173018 38 168 0.0 6.4 0.00 0.00 0.00 48 1013.5
20260906171518 37 147 6.4 11.3 0.00 0.00 0.00 49 1013.9
20260906170013 37 350 3.2 9.7 0.00 0.00 0.00 51 1014.0
20260906164511 36 313 1.6 8.0 0.00 0.00 0.00 51 1014.1
20260906163007 36 198 1.6 9.7 0.00 0.00 0.00 54 1014.2
20260906161508 35 94 1.6 8.0 0.00 0.00 0.00 55 1014.2
20260906160015 35 53 0.0 1.6 0.00 0.00 0.00 54 1014.4
20260906154601 34 341 0.0 6.4 0.00 0.00 0.00 57 1014.4
20260906153101 33 314 0.0 6.4 0.00 0.00 0.00 61 1014.3
20260906151605 33 344 1.6 4.8 0.00 0.00 0.00 61 1014.2
20260906150056 33 323 0.0 1.6 0.00 0.00 0.00 60 1014.3
20260906144550 32 128 0.0 1.6 0.00 0.00 0.00 63 1014.1
20260906143106 31 136 0.0 0.0 0.00 0.00 0.00 65 1014.2
20260906141542 30 146 0.0 0.0 0.00 0.00 0.00 68 1014.1
20260906140044 28 103 0.0 6.4 0.00 0.00 0.00 72 1014.0
20260906134539 28 135 0.0 6.4 0.00 0.00 0.00 73 1014.0
20260906133034 28 121 0.0 1.6 0.00 0.00 0.00 73 1014.1
20260906131530 27 11 0.0 1.6 0.00 0.00 0.00 76 1013.9
20260906130039 26 196 0.0 0.0 0.00 0.00 0.00 78 1013.8
20260906124526 24 196 0.0 0.0 0.00 0.00 0.00 85 1013.5
20260906123031 -17 0.0 0.0 0.00 0.00 0.00 1013.2
20260906121517 -17 0.0 0.0 0.00 0.00 0.00 1013.0
20260906120013 -17 0.0 0.0 0.00 0.00 0.00 1012.9
20260906114508 -17 0.0 0.0 0.00 0.00 0.00 1012.7
20260906113004 -17 0.0 0.0 0.00 0.00 0.00 1012.9
20260906111601 -17 0.0 0.0 0.00 0.00 0.00 1012.8
20260906110056 -17 0.0 0.0 0.00 0.00 0.00 1012.7
20260906104551 -17 0.0 0.0 0.00 0.00 0.00 1012.7
20260906103047 -17 0.0 0.0 0.00 0.00 0.00 1012.6
20260906101544 23 198 0.0 0.0 0.00 0.00 0.00 84 1012.5
20260906100042 24 198 0.0 0.0 0.00 0.00 0.00 83 1012.4
20260906094541 24 198 0.0 0.0 0.00 0.00 0.00 83 1012.4
20260906093039 24 198 0.0 0.0 0.00 0.00 0.00 82 1012.3
20260906091538 25 198 0.0 0.0 0.00 0.00 0.00 81 1012.3
20260906090036 25 198 0.0 0.0 0.00 0.00 0.00 79 1012.2
20260906084535 25 198 0.0 0.0 0.00 0.00 0.00 79 1012.1
20260906083040 26 198 0.0 0.0 0.00 0.00 0.00 78 1012.2
20260906081537 26 198 0.0 0.0 0.00 0.00 0.00 77 1012.0
20260906080034 25 198 0.0 0.0 0.00 0.00 0.00 80 1012.1
20260906074535 25 198 0.0 0.0 0.00 0.00 0.00 79 1012.0
20260906073034 25 198 0.0 0.0 0.00 0.00 0.00 81 1012.0
20260906071528 25 195 0.0 0.0 0.00 0.00 0.00 82 1012.2
20260906070030 26 195 0.0 0.0 0.00 0.00 0.00 81 1012.1
20260906064533 26 212 0.0 0.0 0.00 0.00 0.00 80 1012.1
20260906063124 26 211 0.0 1.6 0.00 0.00 0.00 79 1012.3
20260906061522 26 38 0.0 0.0 0.00 0.00 0.00 80 1012.2
20260906060022 26 38 0.0 0.0 0.00 0.00 0.00 81 1012.3
20260906054520 26 40 0.0 1.6 0.00 0.00 0.00 82 1012.4
20260906053026 26 134 0.0 0.0 0.00 0.00 0.00 82 1012.4
20260906051520 26 134 0.0 0.0 0.00 0.00 0.00 81 1012.4
20260906050044 26 62 0.0 0.0 0.00 0.00 0.00 82 1012.3
20260906044515 26 62 0.0 1.6 0.00 0.00 0.00 83 1012.3
20260906043015 27 209 0.0 0.0 0.00 0.00 0.00 80 1012.3
20260906041516 27 209 0.0 0.0 0.00 0.00 0.00 79 1012.3
20260906040014 27 209 0.0 0.0 0.00 0.00 0.00 79 1012.3
20260906034514 27 209 0.0 0.0 0.00 0.00 0.00 77 1012.3
20260906033014 27 209 0.0 0.0 0.00 0.00 0.00 76 1012.1
20260906031519 27 209 0.0 0.0 0.00 0.00 0.00 75 1011.9
20260906030011 28 209 0.0 0.0 0.00 0.00 0.00 74 1011.8
20260906024510 28 209 0.0 0.0 0.00 0.00 0.00 73 1011.6
20260906023010 28 205 0.0 0.0 0.00 0.00 0.00 72 1011.4
20260906021510 29 205 0.0 0.0 0.00 0.00 0.00 70 1011.2
20260906020010 30 205 0.0 0.0 0.00 0.00 0.00 68 1011.2
20260906014510 30 205 0.0 0.0 0.00 0.00 0.00 66 1011.0
20260906013010 31 205 0.0 0.0 0.00 0.00 0.00 64 1010.8
20260906011508 32 205 0.0 0.0 0.00 0.00 0.00 63 1010.7
20260906010007 33 205 0.0 0.0 0.00 0.00 0.00 62 1010.6
20260906004507 34 205 0.0 0.0 0.00 0.00 0.00 59 1010.7
20260906003006 35 205 0.0 0.0 0.00 0.00 0.00 55 1010.7
20260906001505 37 167 0.0 0.0 0.00 0.00 0.00 50 1010.7
20260906000005 38 127 0.0 0.0 0.00 0.00 0.00 46 1010.7
20260905234503 38 121 0.0 1.6 0.00 0.00 0.00 48 1010.6
20260905233003 38 128 0.0 6.4 0.00 0.00 0.00 45 1010.5
20260905231503 38 116 0.0 8.0 0.00 0.00 0.00 45 1010.4
20260905230002 39 92 0.0 3.2 0.00 0.00 0.00 44 1010.5
20260905224609 39 156 3.2 4.8 0.00 0.00 0.00 44 1010.5
20260905223059 38 140 3.2 11.3 0.00 0.00 0.00 45 1010.6
20260905223002 38 127 1.6 8.0 0.00 0.00 0.00 45 1010.6
20260905221600 38 133 3.2 12.9 0.00 0.00 0.00 44 1010.6
20260905220057 38 322 0.0 9.7 0.00 0.00 0.00 44 1010.8
20260905214606 38 111 4.8 12.9 0.00 0.00 0.00 44 1010.8
20260905213053 38 195 6.4 14.5 0.00 0.00 0.00 45 1010.9
20260905211551 38 138 8.0 12.9 0.00 0.00 0.00 45 1011.3
20260905210050 38 107 4.8 16.1 0.00 0.00 0.00 45 1011.4
20260905204548 39 226 8.0 12.9 0.00 0.00 0.00 45 1011.6
20260905203045 39 186 3.2 11.3 0.00 0.00 0.00 45 1011.9
20260905201541 38 130 1.6 14.5 0.00 0.00 0.00 45 1012.0
20260905200043 38 17 1.6 11.3 0.00 0.00 0.00 45 1012.3
20260905194534 38 218 4.8 11.3 0.00 0.00 0.00 45 1012.5
20260905193032 38 115 3.2 12.9 0.00 0.00 0.00 47 1012.6
20260905191529 37 155 8.0 14.5 0.00 0.00 0.00 48 1012.9
20260905190029 36 14 3.2 11.3 0.00 0.00 0.00 51 1013.0
20260905184536 36 65 3.2 9.7 0.00 0.00 0.00 51 1013.4
20260905183030 36 126 1.6 11.3 0.00 0.00 0.00 51 1013.6